This is the latest recevied weather packets stored in our database for station/object DK4DO-10. If no packets are shown the sender has not sent any weather packets the latest 1 day(s).
| Time | Temp. | Humidity | Pressure | Rain* | Wind** | Luminosity | Snow |
|---|---|---|---|---|---|---|---|
| 1777764780 | 17.22° C | 50% | 1008.3 hPa | - | - | - | - |
| 1777764180 | 17.22° C | 50% | 1008.5 hPa | - | - | - | - |
| 1777763580 | 16.67° C | 52% | 1008.4 hPa | - | - | - | - |
| 1777762980 | 16.67° C | 53% | 1008.5 hPa | - | - | - | - |
| 1777762380 | 15.56° C | 55% | 1008.6 hPa | - | - | - | - |
| 1777761779 | 15° C | 59% | 1008.8 hPa | - | - | - | - |
| 1777761179 | 15° C | 59% | 1008.7 hPa | - | - | - | - |
| 1777760579 | 15.56° C | 57% | 1008.7 hPa | - | - | - | - |
| 1777759979 | 17.22° C | 51% | 1008.7 hPa | - | - | - | - |
| 1777759378 | 16.67° C | 52% | 1008.8 hPa | - | - | - | - |
| 1777758778 | 16.11° C | 54% | 1008.7 hPa | - | - | - | - |
| 1777758178 | 17.22° C | 51% | 1008.9 hPa | - | - | - | - |
| 1777756978 | 17.78° C | 50% | 1009.2 hPa | - | - | - | - |
| 1777756377 | 19.44° C | 46% | 1009.3 hPa | - | - | - | - |
| 1777755777 | 19.44° C | 45% | 1009.5 hPa | - | - | - | - |
| 1777755177 | 19.44° C | 45% | 1009.9 hPa | - | - | - | - |
| 1777754576 | 19.44° C | 46% | 1010.2 hPa | - | - | - | - |
| 1777753976 | 19.44° C | 45% | 1010.1 hPa | - | - | - | - |
| 1777753376 | 19.44° C | 45% | 1010 hPa | - | - | - | - |
| 1777752776 | 18.89° C | 47% | 1010.5 hPa | - | - | - | - |
| 1777752176 | 18.89° C | 47% | 1011 hPa | - | - | - | - |
| 1777751575 | 19.44° C | 47% | 1011.1 hPa | - | - | - | - |
| 1777750975 | 20° C | 47% | 1010.4 hPa | - | - | - | - |
| 1777750375 | 21.11° C | 44% | 1009.2 hPa | - | - | - | - |
| 1777749775 | 21.67° C | 45% | 1008.9 hPa | - | - | - | - |
* Rain since midnight (hover to see other rain measurements)
** Current wind speed in m/s (hover to see current wind gust speed)